Year,Month,Day,Hour,Minute,Value (Times are PST for temperature in C)
2014,07,17,00,00,18.80
2014,07,17,00,01,18.80
2014,07,17,00,02,18.80
2014,07,17,00,03,18.80
2014,07,17,00,04,18.80
2014,07,17,00,05,18.80
2014,07,17,00,06,18.80
2014,07,17,00,07,18.80
2014,07,17,00,08,18.80
2014,07,17,00,09,18.80
2014,07,17,00,10,18.80
2014,07,17,00,11,18.80
2014,07,17,00,12,18.80
2014,07,17,00,13,18.80
2014,07,17,00,14,18.80
2014,07,17,00,15,18.80
2014,07,17,00,16,18.90
2014,07,17,00,17,18.90
2014,07,17,00,18,18.90
2014,07,17,00,19,18.90
2014,07,17,00,20,18.90
2014,07,17,00,21,18.90
2014,07,17,00,22,18.80
2014,07,17,00,23,18.80
2014,07,17,00,24,18.80
2014,07,17,00,25,18.80
2014,07,17,00,26,18.80
2014,07,17,00,27,18.80
2014,07,17,00,28,18.70
2014,07,17,00,29,18.70
2014,07,17,00,30,18.70
2014,07,17,00,31,18.70
2014,07,17,00,32,18.60
2014,07,17,00,33,18.60
2014,07,17,00,34,18.60
2014,07,17,00,35,18.60
2014,07,17,00,36,18.60
2014,07,17,00,37,18.60
2014,07,17,00,38,18.60
2014,07,17,00,39,18.50
2014,07,17,00,40,18.50
2014,07,17,00,41,18.50
2014,07,17,00,42,18.50
2014,07,17,00,43,18.50
2014,07,17,00,44,18.50
2014,07,17,00,45,18.50
2014,07,17,00,46,18.50
2014,07,17,00,47,18.50
2014,07,17,00,48,18.50
2014,07,17,00,49,18.50
2014,07,17,00,50,18.50
2014,07,17,00,51,18.40
2014,07,17,00,52,18.40
2014,07,17,00,53,18.40
2014,07,17,00,54,18.40
2014,07,17,00,55,18.30
2014,07,17,00,56,18.30
2014,07,17,00,57,18.30
2014,07,17,00,58,18.30
2014,07,17,00,59,18.20
2014,07,17,01,00,18.20
2014,07,17,01,01,18.10
2014,07,17,01,02,18.10
2014,07,17,01,03,18.10
2014,07,17,01,04,18.00
2014,07,17,01,05,18.00
2014,07,17,01,06,17.90
2014,07,17,01,07,17.90
2014,07,17,01,08,17.90
2014,07,17,01,09,17.80
2014,07,17,01,10,17.80
2014,07,17,01,11,17.80
2014,07,17,01,12,17.70
2014,07,17,01,13,17.70
2014,07,17,01,14,17.70
2014,07,17,01,15,17.70
2014,07,17,01,16,17.70
2014,07,17,01,17,17.70
2014,07,17,01,18,17.70
2014,07,17,01,19,17.70
2014,07,17,01,20,17.70
2014,07,17,01,21,17.70
2014,07,17,01,22,17.70
2014,07,17,01,23,17.60
2014,07,17,01,24,17.60
2014,07,17,01,25,17.60
2014,07,17,01,26,17.60
2014,07,17,01,27,17.60
2014,07,17,01,28,17.60
2014,07,17,01,29,17.60
2014,07,17,01,30,17.60
2014,07,17,01,31,17.60
2014,07,17,01,32,17.60
2014,07,17,01,33,17.60
2014,07,17,01,34,17.60
2014,07,17,01,35,17.60
2014,07,17,01,36,17.60
2014,07,17,01,37,17.60
2014,07,17,01,38,17.60
2014,07,17,01,39,17.60
2014,07,17,01,40,17.60
2014,07,17,01,41,17.60
2014,07,17,01,42,17.60
2014,07,17,01,43,17.60
2014,07,17,01,44,17.60
2014,07,17,01,45,17.60
2014,07,17,01,46,17.60
2014,07,17,01,47,17.60
2014,07,17,01,48,17.60
2014,07,17,01,49,17.60
2014,07,17,01,50,17.60
2014,07,17,01,51,17.60
2014,07,17,01,52,17.60
2014,07,17,01,53,17.60
2014,07,17,01,54,17.60
2014,07,17,01,55,17.60
2014,07,17,01,56,17.60
2014,07,17,01,57,17.60
2014,07,17,01,58,17.60
2014,07,17,01,59,17.60
2014,07,17,02,00,17.60
2014,07,17,02,01,17.60
2014,07,17,02,02,17.70
2014,07,17,02,03,17.70
2014,07,17,02,04,17.70
2014,07,17,02,05,17.70
2014,07,17,02,06,17.70
2014,07,17,02,07,17.70
2014,07,17,02,08,17.70
2014,07,17,02,09,17.70
2014,07,17,02,10,17.70
2014,07,17,02,11,17.80
2014,07,17,02,12,17.80
2014,07,17,02,13,17.80
2014,07,17,02,14,17.80
2014,07,17,02,15,17.80
2014,07,17,02,16,17.80
2014,07,17,02,17,17.80
2014,07,17,02,18,17.80
2014,07,17,02,19,17.80
2014,07,17,02,20,17.80
2014,07,17,02,21,17.80
2014,07,17,02,22,17.80
2014,07,17,02,23,17.80
2014,07,17,02,24,17.80
2014,07,17,02,25,17.80
2014,07,17,02,26,17.80
2014,07,17,02,27,17.80
2014,07,17,02,28,17.80
2014,07,17,02,29,17.80
2014,07,17,02,30,17.70
2014,07,17,02,31,17.70
2014,07,17,02,32,17.70
2014,07,17,02,33,17.70
2014,07,17,02,34,17.70
2014,07,17,02,35,17.70
2014,07,17,02,36,17.70
2014,07,17,02,37,17.70
2014,07,17,02,38,17.60
2014,07,17,02,39,17.60
2014,07,17,02,40,17.60
2014,07,17,02,41,17.60
2014,07,17,02,42,17.60
2014,07,17,02,43,17.50
2014,07,17,02,44,17.50
2014,07,17,02,45,17.40
2014,07,17,02,46,17.40
2014,07,17,02,47,17.40
2014,07,17,02,48,17.40
2014,07,17,02,49,17.30
2014,07,17,02,50,17.30
2014,07,17,02,51,17.30
2014,07,17,02,52,17.30
2014,07,17,02,53,17.30
2014,07,17,02,54,17.30
2014,07,17,02,55,17.20
2014,07,17,02,56,17.20
2014,07,17,02,57,17.20
2014,07,17,02,58,17.20
2014,07,17,02,59,17.20
2014,07,17,03,00,17.10
2014,07,17,03,01,17.10
2014,07,17,03,02,17.10
2014,07,17,03,03,17.10
2014,07,17,03,04,17.10
2014,07,17,03,05,17.10
2014,07,17,03,06,17.10
2014,07,17,03,07,17.10
2014,07,17,03,08,17.10
2014,07,17,03,09,17.10
2014,07,17,03,10,17.10
2014,07,17,03,11,17.00
2014,07,17,03,12,17.00
2014,07,17,03,13,17.00
2014,07,17,03,14,17.00
2014,07,17,03,15,17.00
2014,07,17,03,16,17.00
2014,07,17,03,17,17.00
2014,07,17,03,18,17.00
2014,07,17,03,19,17.00
2014,07,17,03,20,17.10
2014,07,17,03,21,17.10
2014,07,17,03,22,17.10
2014,07,17,03,23,17.20
2014,07,17,03,24,17.20
2014,07,17,03,25,17.20
2014,07,17,03,26,17.20
2014,07,17,03,27,17.20
2014,07,17,03,28,17.20
2014,07,17,03,29,17.20
2014,07,17,03,30,17.20
2014,07,17,03,31,17.10
2014,07,17,03,32,17.10
2014,07,17,03,33,17.10
2014,07,17,03,34,17.10
2014,07,17,03,35,17.10
2014,07,17,03,36,17.10
2014,07,17,03,37,17.00
2014,07,17,03,38,17.00
2014,07,17,03,39,17.00
2014,07,17,03,40,17.00
2014,07,17,03,41,16.90
2014,07,17,03,42,16.90
2014,07,17,03,43,16.90
2014,07,17,03,44,16.90
2014,07,17,03,45,16.90
2014,07,17,03,46,16.90
2014,07,17,03,47,16.80
2014,07,17,03,48,16.80
2014,07,17,03,49,16.80
2014,07,17,03,50,16.80
2014,07,17,03,51,16.80
2014,07,17,03,52,16.80
2014,07,17,03,53,16.80
2014,07,17,03,54,16.80
2014,07,17,03,55,16.70
2014,07,17,03,56,16.70
2014,07,17,03,57,16.70
2014,07,17,03,58,16.70
2014,07,17,03,59,16.70
2014,07,17,04,00,16.70
2014,07,17,04,01,16.70
2014,07,17,04,02,16.70
2014,07,17,04,03,16.70
2014,07,17,04,04,16.70
2014,07,17,04,05,16.70
2014,07,17,04,06,16.60
2014,07,17,04,07,16.60
2014,07,17,04,08,16.60
2014,07,17,04,09,16.60
2014,07,17,04,10,16.60
2014,07,17,04,11,16.60
2014,07,17,04,12,16.50
2014,07,17,04,13,16.50
2014,07,17,04,14,16.50
2014,07,17,04,15,16.40
2014,07,17,04,16,16.40
2014,07,17,04,17,16.40
2014,07,17,04,18,16.40
2014,07,17,04,19,16.40
2014,07,17,04,20,16.30
2014,07,17,04,21,16.30
2014,07,17,04,22,16.30
2014,07,17,04,23,16.30
2014,07,17,04,24,16.20
2014,07,17,04,25,16.20
2014,07,17,04,26,16.20
2014,07,17,04,27,16.20
2014,07,17,04,28,16.10
2014,07,17,04,29,16.10
2014,07,17,04,30,16.10
2014,07,17,04,31,16.00
2014,07,17,04,32,16.00
2014,07,17,04,33,16.00
2014,07,17,04,34,15.90
2014,07,17,04,35,15.90
2014,07,17,04,36,15.90
2014,07,17,04,37,15.90
2014,07,17,04,38,15.80
2014,07,17,04,39,15.80
2014,07,17,04,40,15.80
2014,07,17,04,41,15.80
2014,07,17,04,42,15.80
2014,07,17,04,43,15.70
2014,07,17,04,44,15.70
2014,07,17,04,45,15.70
2014,07,17,04,46,15.70
2014,07,17,04,47,15.60
2014,07,17,04,48,15.60
2014,07,17,04,49,15.60
2014,07,17,04,50,15.60
2014,07,17,04,51,15.50
2014,07,17,04,52,15.50
2014,07,17,04,53,15.50
2014,07,17,04,54,15.40
2014,07,17,04,55,15.40
2014,07,17,04,56,15.40
2014,07,17,04,57,15.40
2014,07,17,04,58,15.30
2014,07,17,04,59,15.30
2014,07,17,05,00,15.30
2014,07,17,05,01,15.20
2014,07,17,05,02,15.20
2014,07,17,05,03,15.20
2014,07,17,05,04,15.20
2014,07,17,05,05,15.10
2014,07,17,05,06,15.10
2014,07,17,05,07,15.00
2014,07,17,05,08,15.00
2014,07,17,05,09,15.00
2014,07,17,05,10,15.00
2014,07,17,05,11,15.00
2014,07,17,05,12,15.00
2014,07,17,05,13,15.00
2014,07,17,05,14,15.00
2014,07,17,05,15,15.00
2014,07,17,05,16,15.00
2014,07,17,05,17,15.00
2014,07,17,05,18,15.00
2014,07,17,05,19,15.00
2014,07,17,05,20,15.00
2014,07,17,05,21,15.00
2014,07,17,05,22,15.00
2014,07,17,05,23,15.00
2014,07,17,05,24,15.00
2014,07,17,05,25,14.90
2014,07,17,05,26,14.90
2014,07,17,05,27,14.80
2014,07,17,05,28,14.80
2014,07,17,05,29,14.80
2014,07,17,05,30,14.80
2014,07,17,05,31,14.70
2014,07,17,05,32,14.70
2014,07,17,05,33,14.70
2014,07,17,05,34,14.70
2014,07,17,05,35,14.70
2014,07,17,05,36,14.60
2014,07,17,05,37,14.60
2014,07,17,05,38,14.60
2014,07,17,05,39,14.60
2014,07,17,05,40,14.50
2014,07,17,05,41,14.50
2014,07,17,05,42,14.50
2014,07,17,05,43,14.40
2014,07,17,05,44,14.40
2014,07,17,05,45,14.40
2014,07,17,05,46,14.30
2014,07,17,05,47,14.30
2014,07,17,05,48,14.30
2014,07,17,05,49,14.30
2014,07,17,05,50,14.20
2014,07,17,05,51,14.20
2014,07,17,05,52,14.20
2014,07,17,05,53,14.20
2014,07,17,05,54,14.10
2014,07,17,05,55,14.10
2014,07,17,05,56,14.10
2014,07,17,05,57,14.10
2014,07,17,05,58,14.10
2014,07,17,05,59,14.00
2014,07,17,06,00,14.00
2014,07,17,06,01,14.00
2014,07,17,06,02,14.00
2014,07,17,06,03,13.90
2014,07,17,06,04,13.90
2014,07,17,06,05,13.90
2014,07,17,06,06,13.90
2014,07,17,06,07,13.90
2014,07,17,06,08,13.90
2014,07,17,06,09,13.90
2014,07,17,06,10,13.90
2014,07,17,06,11,13.80
2014,07,17,06,12,13.80
2014,07,17,06,13,13.80
2014,07,17,06,14,13.80
2014,07,17,06,15,13.80
2014,07,17,06,16,13.80
2014,07,17,06,17,13.80
2014,07,17,06,18,13.80
2014,07,17,06,19,13.80
2014,07,17,06,20,13.80
2014,07,17,06,21,13.80
2014,07,17,06,22,13.80
2014,07,17,06,23,13.80
2014,07,17,06,24,13.80
2014,07,17,06,25,13.80
2014,07,17,06,26,13.80
2014,07,17,06,27,13.80
2014,07,17,06,28,13.80
2014,07,17,06,29,13.80
2014,07,17,06,30,13.80
2014,07,17,06,31,13.80
2014,07,17,06,32,13.90
2014,07,17,06,33,13.90
2014,07,17,06,34,13.90
2014,07,17,06,35,13.90
2014,07,17,06,36,13.90
2014,07,17,06,37,13.90
2014,07,17,06,38,13.90
2014,07,17,06,39,13.90
2014,07,17,06,40,14.00
2014,07,17,06,41,14.00
2014,07,17,06,42,14.00
2014,07,17,06,43,14.00
2014,07,17,06,44,14.00
2014,07,17,06,45,14.10
2014,07,17,06,46,14.10
2014,07,17,06,47,14.10
2014,07,17,06,48,14.10
2014,07,17,06,49,14.10
2014,07,17,06,50,14.10
2014,07,17,06,51,14.10
2014,07,17,06,52,14.10
2014,07,17,06,53,14.20
2014,07,17,06,54,14.20
2014,07,17,06,55,14.20
2014,07,17,06,56,14.20
2014,07,17,06,57,14.20
2014,07,17,06,58,14.20
2014,07,17,06,59,14.20
2014,07,17,07,00,14.30
2014,07,17,07,01,14.30
2014,07,17,07,02,14.30
2014,07,17,07,03,14.30
2014,07,17,07,04,14.30
2014,07,17,07,05,14.30
2014,07,17,07,06,14.30
2014,07,17,07,07,14.40
2014,07,17,07,08,14.40
2014,07,17,07,09,14.40
2014,07,17,07,10,14.40
2014,07,17,07,11,14.40
2014,07,17,07,12,14.40
2014,07,17,07,13,14.50
2014,07,17,07,14,14.50
2014,07,17,07,15,14.60
2014,07,17,07,16,14.60
2014,07,17,07,17,14.60
2014,07,17,07,18,14.70
2014,07,17,07,19,14.70
2014,07,17,07,20,14.80
2014,07,17,07,21,14.90
2014,07,17,07,22,15.00
2014,07,17,07,23,15.00
2014,07,17,07,24,15.00
2014,07,17,07,25,15.00
2014,07,17,07,26,15.00
2014,07,17,07,27,15.00
2014,07,17,07,28,15.00
2014,07,17,07,29,15.10
2014,07,17,07,30,15.20
2014,07,17,07,31,15.20
2014,07,17,07,32,15.30
2014,07,17,07,33,15.30
2014,07,17,07,34,15.40
2014,07,17,07,35,15.40
2014,07,17,07,36,15.50
2014,07,17,07,37,15.50
2014,07,17,07,38,15.60
2014,07,17,07,39,15.70
2014,07,17,07,40,15.70
2014,07,17,07,41,15.80
2014,07,17,07,42,15.80
2014,07,17,07,43,15.90
2014,07,17,07,44,16.00
2014,07,17,07,45,16.10
2014,07,17,07,46,16.10
2014,07,17,07,47,16.20
2014,07,17,07,48,16.30
2014,07,17,07,49,16.40
2014,07,17,07,50,16.40
2014,07,17,07,51,16.50
2014,07,17,07,52,16.60
2014,07,17,07,53,16.60
2014,07,17,07,54,16.60
2014,07,17,07,55,16.70
2014,07,17,07,56,16.70
2014,07,17,07,57,16.80
2014,07,17,07,58,16.80
2014,07,17,07,59,16.80
2014,07,17,08,00,16.90
2014,07,17,08,01,16.90
2014,07,17,08,02,16.90
2014,07,17,08,03,17.00
2014,07,17,08,04,17.00
2014,07,17,08,05,17.00
2014,07,17,08,06,17.10
2014,07,17,08,07,17.10
2014,07,17,08,08,17.10
2014,07,17,08,09,17.10
2014,07,17,08,10,17.10
2014,07,17,08,11,17.10
2014,07,17,08,12,17.10
2014,07,17,08,13,17.10
2014,07,17,08,14,17.10
2014,07,17,08,15,17.10
2014,07,17,08,16,17.00
2014,07,17,08,17,17.00
2014,07,17,08,18,16.90
2014,07,17,08,19,16.80
2014,07,17,08,20,16.80
2014,07,17,08,21,16.80
2014,07,17,08,22,16.80
2014,07,17,08,23,16.70
2014,07,17,08,24,16.70
2014,07,17,08,25,16.70
2014,07,17,08,26,16.70
2014,07,17,08,27,16.70
2014,07,17,08,28,16.80
2014,07,17,08,29,16.80
2014,07,17,08,30,16.80
2014,07,17,08,31,16.80
2014,07,17,08,32,16.80
2014,07,17,08,33,16.90
2014,07,17,08,34,16.90
2014,07,17,08,35,16.90
2014,07,17,08,36,17.00
2014,07,17,08,37,17.00
2014,07,17,08,38,17.10
2014,07,17,08,39,17.10
2014,07,17,08,40,17.10
2014,07,17,08,41,17.10
2014,07,17,08,42,17.10
2014,07,17,08,43,17.10
2014,07,17,08,44,17.10
2014,07,17,08,45,17.10
2014,07,17,08,46,17.10
2014,07,17,08,47,17.10
2014,07,17,08,48,17.10
2014,07,17,08,49,17.10
2014,07,17,08,50,17.10
2014,07,17,08,51,17.10
2014,07,17,08,52,17.00
2014,07,17,08,53,17.10
2014,07,17,08,54,17.10
2014,07,17,08,55,17.10
2014,07,17,08,56,17.10
2014,07,17,08,57,17.10
2014,07,17,08,58,17.20
2014,07,17,08,59,17.20
2014,07,17,09,00,17.20
2014,07,17,09,01,17.20
2014,07,17,09,02,17.20
2014,07,17,09,03,17.30
2014,07,17,09,04,17.30
2014,07,17,09,05,17.30
2014,07,17,09,06,17.30
2014,07,17,09,07,17.40
2014,07,17,09,08,17.40
2014,07,17,09,09,17.50
2014,07,17,09,10,17.50
2014,07,17,09,11,17.60
2014,07,17,09,12,17.60
2014,07,17,09,13,17.70
2014,07,17,09,14,17.70
2014,07,17,09,15,17.70
2014,07,17,09,16,17.60
2014,07,17,09,17,17.60
2014,07,17,09,18,17.50
2014,07,17,09,19,17.50
2014,07,17,09,20,17.40
2014,07,17,09,21,17.40
2014,07,17,09,22,17.40
2014,07,17,09,23,17.30
2014,07,17,09,24,17.30
2014,07,17,09,25,17.30
2014,07,17,09,26,17.30
2014,07,17,09,27,17.20
2014,07,17,09,28,17.20
2014,07,17,09,29,17.20
2014,07,17,09,30,17.20
2014,07,17,09,31,17.20
2014,07,17,09,32,17.20
2014,07,17,09,33,17.20
2014,07,17,09,34,17.20
2014,07,17,09,35,17.20
2014,07,17,09,36,17.20
2014,07,17,09,37,17.20
2014,07,17,09,38,17.20
2014,07,17,09,39,17.20
2014,07,17,09,40,17.20
2014,07,17,09,41,17.20
2014,07,17,09,42,17.30
2014,07,17,09,43,17.30
2014,07,17,09,44,17.30
2014,07,17,09,45,17.30
2014,07,17,09,46,17.40
2014,07,17,09,47,17.40
2014,07,17,09,48,17.40
2014,07,17,09,49,17.50
2014,07,17,09,50,17.50
2014,07,17,09,51,17.50
2014,07,17,09,52,17.50
2014,07,17,09,53,17.40
2014,07,17,09,54,17.40
2014,07,17,09,55,17.40
2014,07,17,09,56,17.40
2014,07,17,09,57,17.40
2014,07,17,09,58,17.40
2014,07,17,09,59,17.40
2014,07,17,10,00,17.30
2014,07,17,10,01,17.30
2014,07,17,10,02,17.30
2014,07,17,10,03,17.30
2014,07,17,10,04,17.30
2014,07,17,10,05,17.20
2014,07,17,10,06,17.20
2014,07,17,10,07,17.20
2014,07,17,10,08,17.10
2014,07,17,10,09,17.10
2014,07,17,10,10,17.00
2014,07,17,10,11,17.00
2014,07,17,10,12,17.00
2014,07,17,10,13,16.90
2014,07,17,10,14,17.00
2014,07,17,10,15,17.00
2014,07,17,10,16,17.00
2014,07,17,10,17,17.00
2014,07,17,10,18,17.00
2014,07,17,10,19,17.00
2014,07,17,10,20,17.00
2014,07,17,10,21,17.00
2014,07,17,10,22,17.00
2014,07,17,10,23,17.10
2014,07,17,10,24,17.10
2014,07,17,10,25,17.00
2014,07,17,10,26,17.00
2014,07,17,10,27,17.00
2014,07,17,10,28,17.00
2014,07,17,10,29,17.00
2014,07,17,10,30,17.00
2014,07,17,10,31,17.10
2014,07,17,10,32,17.10
2014,07,17,10,33,17.20
2014,07,17,10,34,17.20
2014,07,17,10,35,17.30
2014,07,17,10,36,17.30
2014,07,17,10,37,17.40
2014,07,17,10,38,17.50
2014,07,17,10,39,17.50
2014,07,17,10,40,17.60
2014,07,17,10,41,17.70
2014,07,17,10,42,17.80
2014,07,17,10,43,17.90
2014,07,17,10,44,17.90
2014,07,17,10,45,18.00
2014,07,17,10,46,18.10
2014,07,17,10,47,18.10
2014,07,17,10,48,18.10
2014,07,17,10,49,18.10
2014,07,17,10,50,18.20
2014,07,17,10,51,18.20
2014,07,17,10,52,18.30
2014,07,17,10,53,18.30
2014,07,17,10,54,18.40
2014,07,17,10,55,18.50
2014,07,17,10,56,18.60
2014,07,17,10,57,18.70
2014,07,17,10,58,18.80
2014,07,17,10,59,18.90
2014,07,17,11,00,19.00
2014,07,17,11,01,19.00
2014,07,17,11,02,19.00
2014,07,17,11,03,19.10
2014,07,17,11,04,19.10
2014,07,17,11,05,19.10
2014,07,17,11,06,19.10
2014,07,17,11,07,19.10
2014,07,17,11,08,19.00
2014,07,17,11,09,19.00
2014,07,17,11,10,19.00
2014,07,17,11,11,18.90
2014,07,17,11,12,18.90
2014,07,17,11,13,18.90
2014,07,17,11,14,18.90
2014,07,17,11,15,18.90
2014,07,17,11,16,18.90
2014,07,17,11,17,19.00
2014,07,17,11,18,19.00
2014,07,17,11,19,19.10
2014,07,17,11,20,19.20
2014,07,17,11,21,19.30
2014,07,17,11,22,19.30
2014,07,17,11,23,19.40
2014,07,17,11,24,19.50
2014,07,17,11,25,19.60
2014,07,17,11,26,19.70
2014,07,17,11,27,19.80
2014,07,17,11,28,19.90
2014,07,17,11,29,20.00
2014,07,17,11,30,20.20
2014,07,17,11,31,20.30
2014,07,17,11,32,20.40
2014,07,17,11,33,20.50
2014,07,17,11,34,20.60
2014,07,17,11,35,20.70
2014,07,17,11,36,20.70
2014,07,17,11,37,20.70
2014,07,17,11,38,20.80
2014,07,17,11,39,20.80
2014,07,17,11,40,20.80
2014,07,17,11,41,20.70
2014,07,17,11,42,20.70
2014,07,17,11,43,20.60
2014,07,17,11,44,20.50
2014,07,17,11,45,20.50
2014,07,17,11,46,20.40
2014,07,17,11,47,20.30
2014,07,17,11,48,20.30
2014,07,17,11,49,20.30
2014,07,17,11,50,20.30
2014,07,17,11,51,20.30
2014,07,17,11,52,20.30
2014,07,17,11,53,20.20
2014,07,17,11,54,20.20
2014,07,17,11,55,20.20
2014,07,17,11,56,20.20
2014,07,17,11,57,20.20
2014,07,17,11,58,20.10
2014,07,17,11,59,20.10
2014,07,17,12,00,20.00
2014,07,17,12,01,20.00
2014,07,17,12,02,19.90
2014,07,17,12,03,20.00
2014,07,17,12,04,20.00
2014,07,17,12,05,20.10
2014,07,17,12,06,20.20
2014,07,17,12,07,20.30
2014,07,17,12,08,20.40
2014,07,17,12,09,20.40
2014,07,17,12,10,20.30
2014,07,17,12,11,20.30
2014,07,17,12,12,20.40
2014,07,17,12,13,20.40
2014,07,17,12,14,20.50
2014,07,17,12,15,20.60
2014,07,17,12,16,20.60
2014,07,17,12,17,20.70
2014,07,17,12,18,20.70
2014,07,17,12,19,20.80
2014,07,17,12,20,20.90
2014,07,17,12,21,20.90
2014,07,17,12,22,21.00
2014,07,17,12,23,21.10
2014,07,17,12,24,21.10
2014,07,17,12,25,21.10
2014,07,17,12,26,21.10
2014,07,17,12,27,21.00
2014,07,17,12,28,21.00
2014,07,17,12,29,20.90
2014,07,17,12,30,20.90
2014,07,17,12,31,20.90
2014,07,17,12,32,21.00
2014,07,17,12,33,21.00
2014,07,17,12,34,20.90
2014,07,17,12,35,20.80
2014,07,17,12,36,20.70
2014,07,17,12,37,20.60
2014,07,17,12,38,20.50
2014,07,17,12,39,20.50
2014,07,17,12,40,20.50
2014,07,17,12,41,20.50
2014,07,17,12,42,20.50
2014,07,17,12,43,20.60
2014,07,17,12,44,20.60
2014,07,17,12,45,20.60
2014,07,17,12,46,20.60
2014,07,17,12,47,20.60
2014,07,17,12,48,20.50
2014,07,17,12,49,20.50
2014,07,17,12,50,20.40
2014,07,17,12,51,20.40
2014,07,17,12,52,20.30
2014,07,17,12,53,20.30
2014,07,17,12,54,20.30
2014,07,17,12,55,20.20
2014,07,17,12,56,20.20
2014,07,17,12,57,20.20
2014,07,17,12,58,20.10
2014,07,17,12,59,20.10
2014,07,17,13,00,20.10
2014,07,17,13,01,20.10
2014,07,17,13,02,20.10
2014,07,17,13,03,20.10
2014,07,17,13,04,20.20
2014,07,17,13,05,20.20
2014,07,17,13,06,20.30
2014,07,17,13,07,20.30
2014,07,17,13,08,20.40
2014,07,17,13,09,20.50
2014,07,17,13,10,20.60
2014,07,17,13,11,20.70
2014,07,17,13,12,20.80
2014,07,17,13,13,20.90
2014,07,17,13,14,21.00
2014,07,17,13,15,21.10
2014,07,17,13,16,21.10
2014,07,17,13,17,21.10
2014,07,17,13,18,21.00
2014,07,17,13,19,20.90
2014,07,17,13,20,20.80
2014,07,17,13,21,20.70
2014,07,17,13,22,20.60
2014,07,17,13,23,20.60
2014,07,17,13,24,20.60
2014,07,17,13,25,20.60
2014,07,17,13,26,20.60
2014,07,17,13,27,20.60
2014,07,17,13,28,20.50
2014,07,17,13,29,20.50
2014,07,17,13,30,20.50
2014,07,17,13,31,20.50
2014,07,17,13,32,20.50
2014,07,17,13,33,20.60
2014,07,17,13,34,20.60
2014,07,17,13,35,20.70
2014,07,17,13,36,20.70
2014,07,17,13,37,20.70
2014,07,17,13,38,20.80
2014,07,17,13,39,20.80
2014,07,17,13,40,20.80
2014,07,17,13,41,20.80
2014,07,17,13,42,20.80
2014,07,17,13,43,20.70
2014,07,17,13,44,20.80
2014,07,17,13,45,20.80
2014,07,17,13,46,20.90
2014,07,17,13,47,20.90
2014,07,17,13,48,20.90
2014,07,17,13,49,20.80
2014,07,17,13,50,20.80
2014,07,17,13,51,20.90
2014,07,17,13,52,20.90
2014,07,17,13,53,21.00
2014,07,17,13,54,21.10
2014,07,17,13,55,21.20
2014,07,17,13,56,21.30
2014,07,17,13,57,21.30
2014,07,17,13,58,21.30
2014,07,17,13,59,21.40
2014,07,17,14,00,21.40
2014,07,17,14,01,21.40
2014,07,17,14,02,21.40
2014,07,17,14,03,21.40
2014,07,17,14,04,21.40
2014,07,17,14,05,21.40
2014,07,17,14,06,21.40
2014,07,17,14,07,21.40
2014,07,17,14,08,21.40
2014,07,17,14,09,21.40
2014,07,17,14,10,21.50
2014,07,17,14,11,21.40
2014,07,17,14,12,21.40
2014,07,17,14,13,21.40
2014,07,17,14,14,21.40
2014,07,17,14,15,21.50
2014,07,17,14,16,21.50
2014,07,17,14,17,21.60
2014,07,17,14,18,21.60
2014,07,17,14,19,21.60
2014,07,17,14,20,21.60
2014,07,17,14,21,21.60
2014,07,17,14,22,21.60
2014,07,17,14,23,21.60
2014,07,17,14,24,21.60
2014,07,17,14,25,21.60
2014,07,17,14,26,21.70
2014,07,17,14,27,21.70
2014,07,17,14,28,21.70
2014,07,17,14,29,21.80
2014,07,17,14,30,21.80
2014,07,17,14,31,21.80
2014,07,17,14,32,21.80
2014,07,17,14,33,21.80
2014,07,17,14,34,21.90
2014,07,17,14,35,21.90
2014,07,17,14,36,21.90
2014,07,17,14,37,21.90
2014,07,17,14,38,21.90
2014,07,17,14,39,21.80
2014,07,17,14,40,21.80
2014,07,17,14,41,21.80
2014,07,17,14,42,21.80
2014,07,17,14,43,21.80
2014,07,17,14,44,21.80
2014,07,17,14,45,21.80
2014,07,17,14,46,21.80
2014,07,17,14,47,21.80
2014,07,17,14,48,21.70
2014,07,17,14,49,21.70
2014,07,17,14,50,21.70
2014,07,17,14,51,21.70
2014,07,17,14,52,21.70
2014,07,17,14,53,21.70
2014,07,17,14,54,21.60
2014,07,17,14,55,21.60
2014,07,17,14,56,21.70
2014,07,17,14,57,21.70
2014,07,17,14,58,21.70
2014,07,17,14,59,21.80
2014,07,17,15,00,21.90
2014,07,17,15,01,22.00
2014,07,17,15,02,22.10
2014,07,17,15,03,22.30
2014,07,17,15,04,22.30
2014,07,17,15,05,22.40
2014,07,17,15,06,22.40
2014,07,17,15,07,22.50
2014,07,17,15,08,22.50
2014,07,17,15,09,22.60
2014,07,17,15,10,22.60
2014,07,17,15,11,22.60
2014,07,17,15,12,22.70
2014,07,17,15,13,22.80
2014,07,17,15,14,22.80
2014,07,17,15,15,22.90
2014,07,17,15,16,22.90
2014,07,17,15,17,23.00
2014,07,17,15,18,23.00
2014,07,17,15,19,23.00
2014,07,17,15,20,23.00
2014,07,17,15,21,23.00
2014,07,17,15,22,23.00
2014,07,17,15,23,23.10
2014,07,17,15,24,23.10
2014,07,17,15,25,23.10
2014,07,17,15,26,23.10
2014,07,17,15,27,23.10
2014,07,17,15,28,23.00
2014,07,17,15,29,23.00
2014,07,17,15,30,22.90
2014,07,17,15,31,22.90
2014,07,17,15,32,22.90
2014,07,17,15,33,22.90
2014,07,17,15,34,22.90
2014,07,17,15,35,22.90
2014,07,17,15,36,22.90
2014,07,17,15,37,22.90
2014,07,17,15,38,22.90
2014,07,17,15,39,22.90
2014,07,17,15,40,23.00
2014,07,17,15,41,23.00
2014,07,17,15,42,23.10
2014,07,17,15,43,23.10
2014,07,17,15,44,23.10
2014,07,17,15,45,23.10
2014,07,17,15,46,23.10
2014,07,17,15,47,23.10
2014,07,17,15,48,23.20
2014,07,17,15,49,23.20
2014,07,17,15,50,23.30
2014,07,17,15,51,23.30
2014,07,17,15,52,23.30
2014,07,17,15,53,23.30
2014,07,17,15,54,23.40
2014,07,17,15,55,23.40
2014,07,17,15,56,23.40
2014,07,17,15,57,23.40
2014,07,17,15,58,23.40
2014,07,17,15,59,23.40
2014,07,17,16,00,23.40
2014,07,17,16,01,23.40
2014,07,17,16,02,23.30
2014,07,17,16,03,23.30
2014,07,17,16,04,23.20
2014,07,17,16,05,23.10
2014,07,17,16,06,23.20
2014,07,17,16,07,23.20
2014,07,17,16,08,23.20
2014,07,17,16,09,23.30
2014,07,17,16,10,23.30
2014,07,17,16,11,23.40
2014,07,17,16,12,23.40
2014,07,17,16,13,23.40
2014,07,17,16,14,23.40
2014,07,17,16,15,23.40
2014,07,17,16,16,23.40
2014,07,17,16,17,23.40
2014,07,17,16,18,23.40
2014,07,17,16,19,23.30
2014,07,17,16,20,23.30
2014,07,17,16,21,23.30
2014,07,17,16,22,23.30
2014,07,17,16,23,23.30
2014,07,17,16,24,23.30
2014,07,17,16,25,23.40
2014,07,17,16,26,23.50
2014,07,17,16,27,23.60
2014,07,17,16,28,23.60
2014,07,17,16,29,23.60
2014,07,17,16,30,23.60
2014,07,17,16,31,23.60
2014,07,17,16,32,23.60
2014,07,17,16,33,23.70
2014,07,17,16,34,23.80
2014,07,17,16,35,23.80
2014,07,17,16,36,23.90
2014,07,17,16,37,23.90
2014,07,17,16,38,23.90
2014,07,17,16,39,24.00
2014,07,17,16,40,24.10
2014,07,17,16,41,24.20
2014,07,17,16,42,24.30
2014,07,17,16,43,24.30
2014,07,17,16,44,24.30
2014,07,17,16,45,24.30
2014,07,17,16,46,24.30
2014,07,17,16,47,24.30
2014,07,17,16,48,24.30
2014,07,17,16,49,24.30
2014,07,17,16,50,24.40
2014,07,17,16,51,24.50
2014,07,17,16,52,24.50
2014,07,17,16,53,24.60
2014,07,17,16,54,24.60
2014,07,17,16,55,24.60
2014,07,17,16,56,24.60
2014,07,17,16,57,24.60
2014,07,17,16,58,24.60
2014,07,17,16,59,24.60
2014,07,17,17,00,24.60
2014,07,17,17,01,24.60
2014,07,17,17,02,24.60
2014,07,17,17,03,24.60
2014,07,17,17,04,24.60
2014,07,17,17,05,24.50
2014,07,17,17,06,24.50
2014,07,17,17,07,24.40
2014,07,17,17,08,24.40
2014,07,17,17,09,24.40
2014,07,17,17,10,24.50
2014,07,17,17,11,24.50
2014,07,17,17,12,24.60
2014,07,17,17,13,24.60
2014,07,17,17,14,24.70
2014,07,17,17,15,24.70
2014,07,17,17,16,24.60
2014,07,17,17,17,24.60
2014,07,17,17,18,24.50
2014,07,17,17,19,24.40